TimeMDT,TemperatureF,Dew PointF,Humidity,Sea Level PressureIn,VisibilityMPH,Wind Direction,Wind SpeedMPH,Gust SpeedMPH,PrecipitationIn,Events,Conditions,WindDirDegrees,DateUTC
12:53 AM,71.1,45.0,39,29.80,10.0,SSE,8.1,-,N/A,,Clear,160,2013-07-22 06:53:00
1:53 AM,68.0,46.0,45,29.82,10.0,South,6.9,-,N/A,,Clear,190,2013-07-22 07:53:00
2:53 AM,68.0,45.0,43,29.84,10.0,ESE,9.2,-,N/A,,Clear,110,2013-07-22 08:53:00
3:53 AM,66.9,45.0,45,29.84,10.0,ESE,9.2,-,N/A,,Clear,120,2013-07-22 09:53:00
4:53 AM,66.0,45.0,47,29.85,10.0,ESE,5.8,-,N/A,,Clear,120,2013-07-22 10:53:00
5:53 AM,66.9,44.1,44,29.86,10.0,SE,8.1,-,N/A,,Clear,130,2013-07-22 11:53:00
6:53 AM,66.0,45.0,47,29.88,10.0,SE,6.9,-,N/A,,Clear,140,2013-07-22 12:53:00
7:53 AM,71.1,46.0,41,29.89,10.0,SE,6.9,-,N/A,,Clear,130,2013-07-22 13:53:00
8:53 AM,75.0,46.9,37,29.91,10.0,Calm,Calm,-,N/A,,Clear,0,2013-07-22 14:53:00
9:53 AM,79.0,46.0,31,29.90,10.0,SSW,3.5,-,N/A,,Clear,210,2013-07-22 15:53:00
10:53 AM,82.9,46.0,27,29.89,10.0,Variable,3.5,-,N/A,,Clear,0,2013-07-22 16:53:00
11:53 AM,86.0,46.0,25,29.87,10.0,WNW,6.9,-,N/A,,Clear,300,2013-07-22 17:53:00
12:53 PM,87.1,46.0,24,29.86,10.0,Variable,4.6,-,N/A,,Clear,0,2013-07-22 18:53:00
1:53 PM,91.0,39.9,17,29.83,10.0,WNW,4.6,-,N/A,,Clear,300,2013-07-22 19:53:00
2:53 PM,91.9,28.9,11,29.81,10.0,NW,9.2,-,N/A,,Clear,320,2013-07-22 20:53:00
3:53 PM,93.9,27.0,9,29.79,10.0,WNW,9.2,-,N/A,,Clear,290,2013-07-22 21:53:00
4:53 PM,93.9,23.0,8,29.77,10.0,NW,8.1,-,N/A,,Clear,310,2013-07-22 22:53:00
5:53 PM,93.0,26.1,9,29.75,10.0,West,6.9,-,N/A,,Clear,270,2013-07-22 23:53:00
6:53 PM,91.9,32.0,12,29.76,10.0,West,5.8,-,N/A,,Clear,260,2013-07-23 00:53:00
7:53 PM,88.0,39.0,18,29.75,10.0,SW,4.6,-,N/A,,Clear,230,2013-07-23 01:53:00
8:53 PM,80.1,45.0,29,29.78,10.0,ESE,3.5,-,N/A,,Clear,120,2013-07-23 02:53:00
9:53 PM,75.9,41.0,29,29.81,10.0,SE,9.2,-,N/A,,Clear,140,2013-07-23 03:53:00
10:53 PM,75.0,37.9,26,29.82,10.0,SE,10.4,-,N/A,,Clear,130,2013-07-23 04:53:00
11:53 PM,73.9,35.1,24,29.82,10.0,SE,10.4,-,N/A,,Clear,130,2013-07-23 05:53:00